Time,TemperatureF,DewpointF,PressureIn,WindDirection,WindDirectionDegrees,WindSpeedMPH,WindSpeedGustMPH,Humidity,HourlyPrecipIn,Conditions,Clouds,dailyrainin,SoftwareType,DateUTC
2013-04-29 00:02:00,52.9,42.2,29.75,NNW,342,0.0,0.0,67,0.00,,---,0.00,VWS V13.01,2013-04-29 05:02:00,
2013-04-29 00:07:00,52.9,42.2,29.75,NNW,342,0.0,0.0,67,0.00,,---,0.00,VWS V13.01,2013-04-29 05:07:00,
2013-04-29 00:12:00,52.9,42.6,29.75,NNW,342,0.0,0.0,68,0.00,,---,0.00,VWS V13.01,2013-04-29 05:12:00,
2013-04-29 00:17:00,52.5,42.3,29.75,NNW,342,0.0,0.0,68,0.00,,---,0.00,VWS V13.01,2013-04-29 05:17:00,
2013-04-29 00:22:00,52.3,42.5,29.75,NNW,342,0.0,0.0,69,0.00,,---,0.00,VWS V13.01,2013-04-29 05:22:00,
2013-04-29 00:27:00,53.1,43.2,29.75,NNW,342,0.0,0.0,69,0.00,,---,0.00,VWS V13.01,2013-04-29 05:27:00,
2013-04-29 00:32:00,53.4,43.1,29.75,NNW,342,0.0,0.0,68,0.00,,---,0.00,VWS V13.01,2013-04-29 05:32:00,
2013-04-29 00:37:00,54.0,42.9,29.75,NNW,342,3.6,4.0,66,0.00,,---,0.00,VWS V13.01,2013-04-29 05:37:00,
2013-04-29 00:42:00,54.3,42.4,29.75,West,274,4.5,4.5,64,0.00,,---,0.00,VWS V13.01,2013-04-29 05:42:00,
2013-04-29 00:47:00,54.3,41.6,29.75,WNW,288,0.0,0.0,62,0.00,,---,0.00,VWS V13.01,2013-04-29 05:47:00,
2013-04-29 00:52:00,54.3,40.8,29.75,WNW,288,0.0,0.0,60,0.00,,---,0.00,VWS V13.01,2013-04-29 05:52:00,
2013-04-29 00:57:00,54.5,40.5,29.75,WNW,288,3.6,4.0,59,0.00,,---,0.00,VWS V13.01,2013-04-29 05:57:00,
2013-04-29 01:02:00,54.7,40.2,29.75,WNW,288,3.1,3.1,58,0.00,,---,0.00,VWS V13.01,2013-04-29 06:02:00,
2013-04-29 01:07:00,54.9,39.5,29.75,WNW,288,3.1,3.6,56,0.00,,---,0.00,VWS V13.01,2013-04-29 06:07:00,
2013-04-29 01:12:00,54.7,38.8,29.75,WNW,288,3.1,3.6,55,0.00,,---,0.00,VWS V13.01,2013-04-29 06:12:00,
2013-04-29 01:17:00,54.3,38.0,29.75,WNW,288,3.1,3.6,54,0.00,,---,0.00,VWS V13.01,2013-04-29 06:17:00,
2013-04-29 01:22:00,54.0,37.7,29.75,WNW,288,2.7,3.6,54,0.00,,---,0.00,VWS V13.01,2013-04-29 06:22:00,
2013-04-29 01:27:00,53.6,37.8,29.78,WNW,288,3.1,3.6,55,0.00,,---,0.00,VWS V13.01,2013-04-29 06:27:00,
2013-04-29 01:32:00,53.6,37.8,29.78,WNW,288,0.0,0.0,55,0.00,,---,0.00,VWS V13.01,2013-04-29 06:32:00,
2013-04-29 01:37:00,53.4,38.1,29.78,WNW,288,0.0,0.0,56,0.00,,---,0.00,VWS V13.01,2013-04-29 06:37:00,
2013-04-29 01:42:00,53.1,37.3,29.78,WNW,288,0.0,0.0,55,0.00,,---,0.00,VWS V13.01,2013-04-29 06:42:00,
2013-04-29 01:47:00,52.5,37.3,29.78,WNW,288,0.0,0.0,56,0.00,,---,0.00,VWS V13.01,2013-04-29 06:47:00,
2013-04-29 01:52:00,51.6,36.5,29.78,WNW,288,0.0,0.0,56,0.00,,---,0.00,VWS V13.01,2013-04-29 06:52:00,
2013-04-29 01:57:00,50.5,36.8,29.78,WNW,288,0.0,0.0,59,0.00,,---,0.00,VWS V13.01,2013-04-29 06:57:00,
2013-04-29 02:02:00,50.2,38.1,29.78,WNW,288,0.0,0.0,63,0.00,,---,0.00,VWS V13.01,2013-04-29 07:02:00,
2013-04-29 02:07:00,50.7,39.4,29.78,WNW,288,0.0,0.0,65,0.00,,---,0.00,VWS V13.01,2013-04-29 07:07:00,
2013-04-29 02:12:00,51.4,39.7,29.78,WNW,288,3.1,4.0,64,0.00,,---,0.00,VWS V13.01,2013-04-29 07:12:00,
2013-04-29 02:17:00,52.0,39.0,29.78,WNW,288,3.1,3.6,61,0.00,,---,0.00,VWS V13.01,2013-04-29 07:17:00,
2013-04-29 02:22:00,52.3,38.5,29.78,WNW,288,4.0,4.0,59,0.00,,---,0.00,VWS V13.01,2013-04-29 07:22:00,
2013-04-29 02:27:00,52.9,38.1,29.78,WNW,288,4.5,4.5,57,0.00,,---,0.00,VWS V13.01,2013-04-29 07:27:00,
2013-04-29 02:32:00,53.1,37.8,29.78,WNW,303,4.5,4.5,56,0.00,,---,0.00,VWS V13.01,2013-04-29 07:32:00,
2013-04-29 02:37:00,53.2,37.5,29.78,WNW,303,4.0,4.7,55,0.00,,---,0.00,VWS V13.01,2013-04-29 07:37:00,
2013-04-29 02:42:00,53.4,37.2,29.78,NNW,327,4.7,4.7,54,0.00,,---,0.00,VWS V13.01,2013-04-29 07:42:00,
2013-04-29 02:47:00,53.2,36.6,29.78,NNW,331,4.5,4.5,53,0.00,,---,0.00,VWS V13.01,2013-04-29 07:47:00,
2013-04-29 02:52:00,52.7,36.5,29.78,WNW,296,5.1,5.1,54,0.00,,---,0.00,VWS V13.01,2013-04-29 07:52:00,
2013-04-29 02:57:00,52.3,36.7,29.78,NW,312,3.6,5.1,55,0.00,,---,0.00,VWS V13.01,2013-04-29 07:57:00,
2013-04-29 03:02:00,51.8,36.2,29.78,NNW,335,4.7,5.1,55,0.00,,---,0.00,VWS V13.01,2013-04-29 08:02:00,
2013-04-29 03:07:00,51.4,36.3,29.78,NNW,345,5.1,5.1,56,0.00,,---,0.00,VWS V13.01,2013-04-29 08:07:00,
2013-04-29 03:12:00,51.1,36.0,29.78,NNW,331,5.1,5.6,56,0.00,,---,0.00,VWS V13.01,2013-04-29 08:12:00,
2013-04-29 03:17:00,50.7,35.6,29.78,SE,144,6.9,6.9,56,0.00,,---,0.00,VWS V13.01,2013-04-29 08:17:00,
2013-04-29 03:22:00,50.5,35.4,29.78,NNW,338,6.0,6.0,56,0.00,,---,0.00,VWS V13.01,2013-04-29 08:22:00,
2013-04-29 03:28:00,50.2,35.1,29.78,NNW,335,5.1,5.6,56,0.00,,---,0.00,VWS V13.01,2013-04-29 08:28:00,
2013-04-29 03:33:00,50.0,34.9,29.78,NNW,333,5.6,6.0,56,0.00,,---,0.00,VWS V13.01,2013-04-29 08:33:00,
2013-04-29 03:38:00,49.6,35.0,29.78,NNW,345,4.5,6.0,57,0.00,,---,0.00,VWS V13.01,2013-04-29 08:38:00,
2013-04-29 03:43:00,49.3,34.7,29.78,North,350,5.1,5.6,57,0.00,,---,0.00,VWS V13.01,2013-04-29 08:43:00,
2013-04-29 03:48:00,48.9,34.4,29.78,NW,320,6.0,6.5,57,0.00,,---,0.00,VWS V13.01,2013-04-29 08:48:00,
2013-04-29 03:53:00,48.7,33.8,29.78,North,353,6.0,6.9,56,0.00,,---,0.00,VWS V13.01,2013-04-29 08:53:00,
2013-04-29 03:58:00,48.6,33.1,29.78,NNW,335,6.5,6.9,55,0.00,,---,0.00,VWS V13.01,2013-04-29 08:58:00,
2013-04-29 04:03:00,48.2,32.3,29.78,North,350,5.1,8.3,54,0.00,,---,0.00,VWS V13.01,2013-04-29 09:03:00,
2013-04-29 04:08:00,48.2,32.3,29.78,North,353,6.9,6.9,54,0.00,,---,0.00,VWS V13.01,2013-04-29 09:08:00,
2013-04-29 04:13:00,47.8,31.5,29.78,NNW,342,5.6,5.6,53,0.00,,---,0.00,VWS V13.01,2013-04-29 09:13:00,
2013-04-29 04:18:00,47.8,31.1,29.78,North,4,5.6,6.5,52,0.00,,---,0.00,VWS V13.01,2013-04-29 09:18:00,
2013-04-29 04:23:00,47.7,30.4,29.78,North,2,6.5,6.5,51,0.00,,---,0.00,VWS V13.01,2013-04-29 09:23:00,
2013-04-29 04:28:00,47.5,29.8,29.78,North,357,6.0,6.0,50,0.00,,---,0.00,VWS V13.01,2013-04-29 09:28:00,
2013-04-29 04:33:00,47.3,29.1,29.78,North,349,6.9,6.9,49,0.00,,---,0.00,VWS V13.01,2013-04-29 09:33:00,
2013-04-29 04:39:00,47.3,28.6,29.78,NNW,343,5.1,6.5,48,0.00,,---,0.00,VWS V13.01,2013-04-29 09:39:00,
2013-04-29 04:44:00,47.1,28.5,29.78,NNW,328,5.6,6.0,48,0.00,,---,0.00,VWS V13.01,2013-04-29 09:44:00,
2013-04-29 04:49:00,46.9,28.3,29.78,NNW,337,4.5,5.6,48,0.00,,---,0.00,VWS V13.01,2013-04-29 09:49:00,
2013-04-29 04:54:00,46.8,28.1,29.78,NNW,329,3.6,4.5,48,0.00,,---,0.00,VWS V13.01,2013-04-29 09:54:00,
2013-04-29 04:59:00,46.6,28.0,29.81,NNW,331,0.0,0.0,48,0.00,,---,0.00,VWS V13.01,2013-04-29 09:59:00,
2013-04-29 05:04:00,46.4,27.8,29.81,South,185,3.6,4.0,48,0.00,,---,0.00,VWS V13.01,2013-04-29 10:04:00,
2013-04-29 05:09:00,46.2,27.6,29.81,NW,316,4.0,4.0,48,0.00,,---,0.00,VWS V13.01,2013-04-29 10:09:00,
2013-04-29 05:14:00,45.9,27.3,29.81,NE,52,0.0,0.0,48,0.00,,---,0.00,VWS V13.01,2013-04-29 10:14:00,
2013-04-29 05:19:00,45.7,27.1,29.81,NNW,327,0.0,0.0,48,0.00,,---,0.00,VWS V13.01,2013-04-29 10:19:00,
2013-04-29 05:24:00,45.7,26.6,29.81,NNW,341,4.7,4.7,47,0.00,,---,0.00,VWS V13.01,2013-04-29 10:24:00,
2013-04-29 05:29:00,45.7,26.6,29.81,NNW,341,3.6,3.6,47,0.00,,---,0.00,VWS V13.01,2013-04-29 10:29:00,
2013-04-29 05:35:00,45.5,25.9,29.81,NNW,341,4.0,4.0,46,0.00,,---,0.00,VWS V13.01,2013-04-29 10:35:00,
2013-04-29 05:40:00,45.3,25.8,29.81,NNW,328,4.0,5.1,46,0.00,,---,0.00,VWS V13.01,2013-04-29 10:40:00,
2013-04-29 05:45:00,45.1,25.6,29.81,North,349,4.5,4.5,46,0.00,,---,0.00,VWS V13.01,2013-04-29 10:45:00,
2013-04-29 05:50:00,45.1,25.1,29.81,North,350,4.5,4.7,45,0.00,,---,0.00,VWS V13.01,2013-04-29 10:50:00,
2013-04-29 05:55:00,45.0,24.4,29.81,NNE,18,4.5,5.1,44,0.00,,---,0.00,VWS V13.01,2013-04-29 10:55:00,
2013-04-29 06:00:00,45.0,23.8,29.81,NNW,342,5.6,6.5,43,0.00,,---,0.00,VWS V13.01,2013-04-29 11:00:00,
2013-04-29 06:05:00,45.0,23.8,29.81,North,353,4.7,6.0,43,0.00,,---,0.00,VWS V13.01,2013-04-29 11:05:00,
2013-04-29 06:10:00,45.0,23.8,29.81,North,4,5.6,6.0,43,0.00,,---,0.00,VWS V13.01,2013-04-29 11:10:00,
2013-04-29 06:15:00,44.8,23.7,29.81,SSW,200,6.0,6.0,43,0.00,,---,0.00,VWS V13.01,2013-04-29 11:15:00,
2013-04-29 06:20:00,44.8,23.1,29.81,North,357,5.1,6.5,42,0.00,,---,0.00,VWS V13.01,2013-04-29 11:20:00,
2013-04-29 06:25:00,44.8,23.1,29.81,North,357,6.0,6.9,42,0.00,,---,0.00,VWS V13.01,2013-04-29 11:25:00,
2013-04-29 06:30:00,44.8,23.1,29.81,North,350,5.1,5.1,42,0.00,,---,0.00,VWS V13.01,2013-04-29 11:30:00,
2013-04-29 06:35:00,45.0,23.3,29.81,North,9,4.7,4.7,42,0.00,,---,0.00,VWS V13.01,2013-04-29 11:35:00,
2013-04-29 06:41:00,45.1,23.4,29.81,North,350,5.1,5.6,42,0.00,,---,0.00,VWS V13.01,2013-04-29 11:41:00,
2013-04-29 06:46:00,45.3,23.0,29.81,North,5,5.1,5.1,41,0.00,,---,0.00,VWS V13.01,2013-04-29 11:46:00,
2013-04-29 06:51:00,45.3,23.0,29.81,NNW,346,4.7,4.7,41,0.00,,---,0.00,VWS V13.01,2013-04-29 11:51:00,
2013-04-29 06:56:00,45.5,23.2,29.81,North,357,6.0,6.0,41,0.00,,---,0.00,VWS V13.01,2013-04-29 11:56:00,
2013-04-29 07:01:00,45.9,23.5,29.81,North,350,5.1,5.6,41,0.00,,---,0.00,VWS V13.01,2013-04-29 12:01:00,
2013-04-29 07:06:00,45.9,23.5,29.81,NNW,340,5.1,5.1,41,0.00,,---,0.00,VWS V13.01,2013-04-29 12:06:00,
2013-04-29 07:11:00,46.0,23.1,29.81,North,350,6.0,6.0,40,0.00,,---,0.00,VWS V13.01,2013-04-29 12:11:00,
2013-04-29 07:16:00,46.2,23.2,29.81,North,357,5.1,5.1,40,0.00,,---,0.00,VWS V13.01,2013-04-29 12:16:00,
2013-04-29 07:21:00,46.4,22.8,29.81,NNE,15,4.0,5.1,39,0.00,,---,0.00,VWS V13.01,2013-04-29 12:21:00,
2013-04-29 07:26:00,46.8,23.1,29.81,North,3,4.5,4.5,39,0.00,,---,0.00,VWS V13.01,2013-04-29 12:26:00,
2013-04-29 07:31:00,46.9,23.3,29.81,North,357,4.7,4.7,39,0.00,,---,0.00,VWS V13.01,2013-04-29 12:31:00,
2013-04-29 07:36:00,47.3,23.6,29.81,North,357,3.6,5.6,39,0.00,,---,0.00,VWS V13.01,2013-04-29 12:36:00,
2013-04-29 07:41:00,47.7,23.3,29.81,NNE,12,3.6,4.7,38,0.00,,---,0.00,VWS V13.01,2013-04-29 12:41:00,
2013-04-29 07:46:00,48.0,23.6,29.81,NNE,20,3.6,4.0,38,0.00,,---,0.00,VWS V13.01,2013-04-29 12:46:00,
2013-04-29 07:51:00,48.7,23.6,29.81,North,1,3.6,4.0,37,0.00,,---,0.00,VWS V13.01,2013-04-29 12:51:00,
2013-04-29 07:57:00,48.7,23.6,29.81,North,3,4.0,4.5,37,0.00,,---,0.00,VWS V13.01,2013-04-29 12:57:00,
2013-04-29 08:02:00,48.9,23.8,29.81,NNE,16,4.5,4.5,37,0.00,,---,0.00,VWS V13.01,2013-04-29 13:02:00,
2013-04-29 08:07:00,49.5,24.3,29.81,North,9,0.0,0.0,37,0.00,,---,0.00,VWS V13.01,2013-04-29 13:07:00,
2013-04-29 08:12:00,49.8,24.6,29.81,North,357,0.0,4.5,37,0.00,,---,0.00,VWS V13.01,2013-04-29 13:12:00,
2013-04-29 08:17:00,50.2,24.3,29.81,North,357,5.1,5.1,36,0.00,,---,0.00,VWS V13.01,2013-04-29 13:17:00,
2013-04-29 08:22:00,50.4,23.1,29.81,North,350,4.5,4.7,34,0.00,,---,0.00,VWS V13.01,2013-04-29 13:22:00,
2013-04-29 08:27:00,50.7,23.4,29.84,NNE,30,4.0,4.7,34,0.00,,---,0.00,VWS V13.01,2013-04-29 13:27:00,
2013-04-29 08:32:00,51.1,23.7,29.84,NNW,345,4.0,4.5,34,0.00,,---,0.00,VWS V13.01,2013-04-29 13:32:00,
2013-04-29 08:37:00,51.6,23.5,29.84,NE,41,0.0,3.6,33,0.00,,---,0.00,VWS V13.01,2013-04-29 13:37:00,
2013-04-29 08:42:00,52.0,23.1,29.84,NNE,15,4.5,4.5,32,0.00,,---,0.00,VWS V13.01,2013-04-29 13:42:00,
2013-04-29 08:47:00,52.3,23.4,29.84,NNE,12,3.6,4.0,32,0.00,,---,0.00,VWS V13.01,2013-04-29 13:47:00,
2013-04-29 08:52:00,52.5,22.8,29.84,North,10,4.5,5.1,31,0.00,,---,0.00,VWS V13.01,2013-04-29 13:52:00,
2013-04-29 08:57:00,52.9,23.1,29.84,North,357,4.5,4.5,31,0.00,,---,0.00,VWS V13.01,2013-04-29 13:57:00,
2013-04-29 09:02:00,53.2,23.4,29.84,North,353,3.6,6.0,31,0.00,,---,0.00,VWS V13.01,2013-04-29 14:02:00,
2013-04-29 09:08:00,53.6,22.9,29.84,NNE,27,4.0,4.0,30,0.00,,---,0.00,VWS V13.01,2013-04-29 14:08:00,
2013-04-29 09:13:00,54.1,23.4,29.81,ENE,65,2.7,2.7,30,0.00,,---,0.00,VWS V13.01,2013-04-29 14:13:00,
2013-04-29 09:18:00,54.5,23.7,29.81,East,92,4.0,4.5,30,0.00,,---,0.00,VWS V13.01,2013-04-29 14:18:00,
2013-04-29 09:23:00,54.5,22.9,29.81,East,82,3.6,3.6,29,0.00,,---,0.00,VWS V13.01,2013-04-29 14:23:00,
2013-04-29 09:28:00,54.9,23.2,29.81,ENE,74,3.6,4.0,29,0.00,,---,0.00,VWS V13.01,2013-04-29 14:28:00,
2013-04-29 09:33:00,55.8,24.0,29.81,East,80,0.0,0.0,29,0.00,,---,0.00,VWS V13.01,2013-04-29 14:33:00,
2013-04-29 09:38:00,55.9,23.3,29.81,ESE,106,0.0,0.0,28,0.00,,---,0.00,VWS V13.01,2013-04-29 14:38:00,
2013-04-29 09:43:00,56.1,23.5,29.81,East,82,0.0,4.0,28,0.00,,---,0.00,VWS V13.01,2013-04-29 14:43:00,
2013-04-29 09:49:00,56.1,23.5,29.81,East,80,4.0,4.5,28,0.00,,---,0.00,VWS V13.01,2013-04-29 14:49:00,
2013-04-29 09:54:00,56.3,23.6,29.81,ESE,109,0.0,0.0,28,0.00,,---,0.00,VWS V13.01,2013-04-29 14:54:00,
2013-04-29 09:59:00,56.5,23.8,29.81,ENE,70,0.0,0.0,28,0.00,,---,0.00,VWS V13.01,2013-04-29 14:59:00,
2013-04-29 10:04:00,56.8,24.1,29.81,NNE,26,4.5,4.5,28,0.00,,---,0.00,VWS V13.01,2013-04-29 15:04:00,
2013-04-29 10:09:00,56.8,24.1,29.81,SE,124,0.0,0.0,28,0.00,,---,0.00,VWS V13.01,2013-04-29 15:09:00,
2013-04-29 10:14:00,57.2,23.5,29.81,NE,55,0.0,0.0,27,0.00,,---,0.00,VWS V13.01,2013-04-29 15:14:00,
2013-04-29 10:19:00,57.2,23.5,29.81,NNW,341,4.7,4.7,27,0.00,,---,0.00,VWS V13.01,2013-04-29 15:19:00,
2013-04-29 10:24:00,57.2,23.5,29.81,ESE,106,0.0,3.6,27,0.00,,---,0.00,VWS V13.01,2013-04-29 15:24:00,
2013-04-29 10:29:00,57.6,23.9,29.81,ESE,116,0.0,0.0,27,0.00,,---,0.00,VWS V13.01,2013-04-29 15:29:00,
2013-04-29 10:34:00,57.9,24.2,29.81,SE,133,0.0,3.6,27,0.00,,---,0.00,VWS V13.01,2013-04-29 15:34:00,
2013-04-29 10:39:00,58.3,24.5,29.81,SSE,150,3.1,4.5,27,0.00,,---,0.00,VWS V13.01,2013-04-29 15:39:00,
2013-04-29 10:45:00,58.3,24.5,29.81,South,181,3.1,3.6,27,0.00,,---,0.00,VWS V13.01,2013-04-29 15:45:00,
2013-04-29 10:50:00,58.1,24.3,29.81,East,89,0.0,0.0,27,0.00,,---,0.00,VWS V13.01,2013-04-29 15:50:00,
2013-04-29 10:55:00,58.3,24.5,29.81,East,100,0.0,3.1,27,0.00,,---,0.00,VWS V13.01,2013-04-29 15:55:00,
2013-04-29 11:00:00,58.6,24.8,29.81,ENE,74,3.6,4.0,27,0.00,,---,0.00,VWS V13.01,2013-04-29 16:00:00,
2013-04-29 11:05:00,58.6,24.8,29.81,SSE,151,4.5,4.5,27,0.00,,---,0.00,VWS V13.01,2013-04-29 16:05:00,
2013-04-29 11:10:00,58.8,24.9,29.81,ESE,116,3.6,4.0,27,0.00,,---,0.00,VWS V13.01,2013-04-29 16:10:00,
2013-04-29 11:15:00,58.8,24.9,29.81,ESE,120,0.0,0.0,27,0.00,,---,0.00,VWS V13.01,2013-04-29 16:15:00,
2013-04-29 11:20:00,59.0,25.1,29.81,SSE,158,4.5,5.6,27,0.00,,---,0.00,VWS V13.01,2013-04-29 16:20:00,
2013-04-29 11:25:00,59.2,25.2,29.81,ESE,118,4.5,4.5,27,0.00,,---,0.00,VWS V13.01,2013-04-29 16:25:00,
2013-04-29 11:31:00,59.2,25.2,29.81,SE,127,4.0,5.1,27,0.00,,---,0.00,VWS V13.01,2013-04-29 16:31:00,
2013-04-29 11:36:00,59.2,25.2,29.81,NE,34,0.0,3.6,27,0.00,,---,0.00,VWS V13.01,2013-04-29 16:36:00,
2013-04-29 11:41:00,59.0,25.1,29.81,ESE,108,0.0,3.1,27,0.00,,---,0.00,VWS V13.01,2013-04-29 16:41:00,
2013-04-29 11:46:00,58.8,25.8,29.81,East,101,4.7,4.7,28,0.00,,---,0.00,VWS V13.01,2013-04-29 16:46:00,
2013-04-29 11:51:00,58.6,25.6,29.81,ESE,120,4.5,5.1,28,0.00,,---,0.00,VWS V13.01,2013-04-29 16:51:00,
2013-04-29 11:56:00,59.2,26.1,29.81,NE,50,4.7,4.7,28,0.00,,---,0.00,VWS V13.01,2013-04-29 16:56:00,
2013-04-29 12:01:00,59.4,25.4,29.81,NE,45,4.7,5.1,27,0.00,,---,0.00,VWS V13.01,2013-04-29 17:01:00,
2013-04-29 12:06:00,59.2,25.2,29.81,East,98,3.6,4.5,27,0.00,,---,0.00,VWS V13.01,2013-04-29 17:06:00,
2013-04-29 12:11:00,59.0,26.0,29.81,South,169,5.1,5.6,28,0.00,,---,0.00,VWS V13.01,2013-04-29 17:11:00,
2013-04-29 12:16:00,58.8,25.8,29.78,ENE,72,4.5,5.6,28,0.00,,---,0.00,VWS V13.01,2013-04-29 17:16:00,
2013-04-29 12:21:00,59.0,25.1,29.78,ESE,104,3.1,3.6,27,0.00,,---,0.00,VWS V13.01,2013-04-29 17:21:00,
2013-04-29 12:26:00,59.4,25.4,29.78,NE,54,3.1,4.5,27,0.00,,---,0.00,VWS V13.01,2013-04-29 17:26:00,
2013-04-29 12:31:00,59.4,25.4,29.78,NNE,32,0.0,3.6,27,0.00,,---,0.00,VWS V13.01,2013-04-29 17:31:00,
2013-04-29 12:36:00,59.9,25.9,29.78,ENE,70,0.0,3.6,27,0.00,,---,0.00,VWS V13.01,2013-04-29 17:36:00,
2013-04-29 12:41:00,60.4,26.3,29.78,East,83,3.6,3.6,27,0.00,,---,0.00,VWS V13.01,2013-04-29 17:41:00,
2013-04-29 12:46:00,60.4,26.3,29.78,East,82,0.0,4.7,27,0.00,,---,0.00,VWS V13.01,2013-04-29 17:46:00,
2013-04-29 12:51:00,60.8,25.7,29.78,ENE,72,3.1,3.6,26,0.00,,---,0.00,VWS V13.01,2013-04-29 17:51:00,
2013-04-29 12:56:00,61.0,25.9,29.78,East,79,3.1,4.7,26,0.00,,---,0.00,VWS V13.01,2013-04-29 17:56:00,
2013-04-29 13:01:00,61.3,26.2,29.78,NE,50,0.0,0.0,26,0.00,,---,0.00,VWS V13.01,2013-04-29 18:01:00,
2013-04-29 13:06:00,61.7,26.5,29.78,NW,310,0.0,0.0,26,0.00,,---,0.00,VWS V13.01,2013-04-29 18:06:00,
2013-04-29 13:11:00,62.2,27.0,29.78,East,84,3.1,5.1,26,0.00,,---,0.00,VWS V13.01,2013-04-29 18:11:00,
2013-04-29 13:16:00,62.1,26.8,29.78,East,96,0.0,0.0,26,0.00,,---,0.00,VWS V13.01,2013-04-29 18:16:00,
2013-04-29 13:21:00,62.2,27.0,29.78,West,281,0.0,0.0,26,0.00,,---,0.00,VWS V13.01,2013-04-29 18:21:00,
2013-04-29 13:26:00,62.8,27.4,29.78,ENE,75,3.6,3.6,26,0.00,,---,0.00,VWS V13.01,2013-04-29 18:26:00,
2013-04-29 13:31:00,62.8,27.4,29.78,SW,217,0.0,0.0,26,0.00,,---,0.00,VWS V13.01,2013-04-29 18:31:00,
2013-04-29 13:36:00,62.8,27.4,29.78,NNW,335,3.6,4.0,26,0.00,,---,0.00,VWS V13.01,2013-04-29 18:36:00,
2013-04-29 13:41:00,63.0,27.6,29.78,WSW,241,3.6,4.7,26,0.00,,---,0.00,VWS V13.01,2013-04-29 18:41:00,
2013-04-29 13:46:00,63.7,28.2,29.78,West,259,0.0,0.0,26,0.00,,---,0.00,VWS V13.01,2013-04-29 18:46:00,
2013-04-29 13:51:00,63.9,28.3,29.78,NNE,33,4.0,5.1,26,0.00,,---,0.00,VWS V13.01,2013-04-29 18:51:00,
2013-04-29 13:56:00,63.7,28.2,29.78,ESE,123,0.0,0.0,26,0.00,,---,0.00,VWS V13.01,2013-04-29 18:56:00,
2013-04-29 14:01:00,64.0,28.5,29.78,South,189,0.0,3.6,26,0.00,,---,0.00,VWS V13.01,2013-04-29 19:01:00,
2013-04-29 14:06:00,64.6,28.0,29.78,WNW,291,0.0,0.0,25,0.00,,---,0.00,VWS V13.01,2013-04-29 19:06:00,
2013-04-29 14:11:00,64.9,28.3,29.78,SE,135,0.0,0.0,25,0.00,,---,0.00,VWS V13.01,2013-04-29 19:11:00,
2013-04-29 14:16:00,65.5,28.8,29.75,WNW,290,0.0,0.0,25,0.00,,---,0.00,VWS V13.01,2013-04-29 19:16:00,
2013-04-29 14:21:00,65.7,28.9,29.75,ENE,70,3.1,4.5,25,0.00,,---,0.00,VWS V13.01,2013-04-29 19:21:00,
2013-04-29 14:26:00,65.5,28.8,29.75,ESE,109,0.0,3.1,25,0.00,,---,0.00,VWS V13.01,2013-04-29 19:26:00,
2013-04-29 14:31:00,65.5,28.8,29.75,ENE,64,0.0,0.0,25,0.00,,---,0.00,VWS V13.01,2013-04-29 19:31:00,
2013-04-29 14:36:00,65.7,28.9,29.75,ENE,78,2.7,3.6,25,0.00,,---,0.00,VWS V13.01,2013-04-29 19:36:00,
2013-04-29 14:41:00,65.8,29.1,29.75,NE,49,4.7,4.7,25,0.00,,---,0.00,VWS V13.01,2013-04-29 19:41:00,
2013-04-29 14:46:00,65.8,29.1,29.75,NE,45,2.7,4.5,25,0.00,,---,0.00,VWS V13.01,2013-04-29 19:46:00,
2013-04-29 14:51:00,65.8,29.1,29.75,ENE,61,4.0,4.5,25,0.00,,---,0.00,VWS V13.01,2013-04-29 19:51:00,
2013-04-29 14:56:00,66.4,29.5,29.75,East,84,0.0,3.6,25,0.00,,---,0.00,VWS V13.01,2013-04-29 19:56:00,
2013-04-29 15:01:00,66.6,29.7,29.75,NE,46,5.6,5.6,25,0.00,,---,0.00,VWS V13.01,2013-04-29 20:01:00,
2013-04-29 15:06:00,66.6,28.7,29.75,ENE,76,4.7,4.7,24,0.00,,---,0.00,VWS V13.01,2013-04-29 20:06:00,
2013-04-29 15:11:00,66.7,28.8,29.75,SSE,151,2.7,3.6,24,0.00,,---,0.00,VWS V13.01,2013-04-29 20:11:00,
2013-04-29 15:16:00,66.9,30.0,29.72,East,85,4.7,4.7,25,0.00,,---,0.00,VWS V13.01,2013-04-29 20:16:00,
2013-04-29 15:21:00,66.7,29.8,29.72,East,100,4.0,5.1,25,0.00,,---,0.00,VWS V13.01,2013-04-29 20:21:00,
2013-04-29 15:26:00,66.7,29.8,29.72,ESE,113,0.0,4.7,25,0.00,,---,0.00,VWS V13.01,2013-04-29 20:26:00,
2013-04-29 15:31:00,66.9,30.0,29.72,East,91,2.7,4.0,25,0.00,,---,0.00,VWS V13.01,2013-04-29 20:31:00,
2013-04-29 15:36:00,66.7,29.8,29.72,ENE,70,5.1,5.1,25,0.00,,---,0.00,VWS V13.01,2013-04-29 20:36:00,
2013-04-29 15:41:00,66.9,30.0,29.72,East,94,4.7,4.7,25,0.00,,---,0.00,VWS V13.01,2013-04-29 20:41:00,
2013-04-29 15:46:00,66.9,30.0,29.72,ENE,60,2.7,3.1,25,0.00,,---,0.00,VWS V13.01,2013-04-29 20:46:00,
2013-04-29 15:51:00,66.6,29.7,29.72,East,95,4.0,4.7,25,0.00,,---,0.00,VWS V13.01,2013-04-29 20:51:00,
2013-04-29 15:56:00,66.4,30.5,29.72,NNE,30,4.7,4.7,26,0.00,,---,0.00,VWS V13.01,2013-04-29 20:56:00,
2013-04-29 16:01:00,66.0,30.2,29.72,ENE,59,3.6,3.6,26,0.00,,---,0.00,VWS V13.01,2013-04-29 21:01:00,
2013-04-29 16:06:00,65.5,29.7,29.72,ESE,107,4.7,4.7,26,0.00,,---,0.00,VWS V13.01,2013-04-29 21:06:00,
2013-04-29 16:11:00,64.9,29.3,29.72,NE,43,4.0,4.5,26,0.00,,---,0.00,VWS V13.01,2013-04-29 21:11:00,
2013-04-29 16:16:00,64.6,29.0,29.72,East,93,5.1,5.6,26,0.00,,---,0.00,VWS V13.01,2013-04-29 21:16:00,
2013-04-29 16:21:00,64.0,28.5,29.72,NE,54,4.0,5.1,26,0.00,,---,0.00,VWS V13.01,2013-04-29 21:21:00,
2013-04-29 16:26:00,63.3,27.9,29.72,East,90,3.6,4.5,26,0.00,,---,0.00,VWS V13.01,2013-04-29 21:26:00,
2013-04-29 16:31:00,63.0,28.5,29.70,East,81,3.6,5.1,27,0.00,,---,0.00,VWS V13.01,2013-04-29 21:31:00,
2013-04-29 16:36:00,62.1,27.7,29.70,NE,52,5.1,5.1,27,0.00,,---,0.00,VWS V13.01,2013-04-29 21:36:00,
2013-04-29 16:41:00,61.2,27.8,29.70,NE,54,5.6,5.6,28,0.00,,---,0.00,VWS V13.01,2013-04-29 21:41:00,
2013-04-29 16:46:00,60.1,27.7,29.70,NE,56,5.1,5.1,29,0.00,,---,0.00,VWS V13.01,2013-04-29 21:46:00,
2013-04-29 16:51:00,58.8,28.3,29.70,NE,51,5.1,5.1,31,0.00,,---,0.00,VWS V13.01,2013-04-29 21:51:00,
2013-04-29 16:56:00,57.9,28.3,29.70,East,83,6.0,7.8,32,0.00,,---,0.00,VWS V13.01,2013-04-29 21:56:00,
2013-04-29 17:01:00,57.0,29.0,29.70,ENE,76,5.1,5.6,34,0.00,,---,0.00,VWS V13.01,2013-04-29 22:01:00,
2013-04-29 17:06:00,55.9,28.7,29.70,NNE,21,4.0,5.6,35,0.00,,---,0.00,VWS V13.01,2013-04-29 22:06:00,
2013-04-29 17:11:00,54.9,28.4,29.70,NNE,25,8.3,8.3,36,0.00,,---,0.00,VWS V13.01,2013-04-29 22:11:00,
2013-04-29 17:16:00,53.8,28.1,29.70,East,95,5.6,5.6,37,0.00,,---,0.00,VWS V13.01,2013-04-29 22:16:00,
2013-04-29 17:22:00,52.5,27.7,29.70,NE,50,5.1,5.1,38,0.00,,---,0.00,VWS V13.01,2013-04-29 22:22:00,
2013-04-29 17:27:00,51.6,28.1,29.70,NE,56,6.5,6.5,40,0.00,,---,0.00,VWS V13.01,2013-04-29 22:27:00,
2013-04-29 17:32:00,50.9,28.1,29.70,NE,37,4.0,5.6,41,0.00,,---,0.00,VWS V13.01,2013-04-29 22:32:00,
2013-04-29 17:37:00,50.4,28.2,29.70,NE,52,4.7,6.0,42,0.00,,---,0.00,VWS V13.01,2013-04-29 22:37:00,
2013-04-29 17:42:00,50.0,28.4,29.70,ENE,71,4.5,6.0,43,0.00,,---,0.00,VWS V13.01,2013-04-29 22:42:00,
2013-04-29 17:47:00,49.5,29.0,29.70,NE,51,4.0,6.0,45,0.00,,---,0.00,VWS V13.01,2013-04-29 22:47:00,
2013-04-29 17:52:00,48.9,29.6,29.70,ENE,65,5.6,6.0,47,0.00,,---,0.00,VWS V13.01,2013-04-29 22:52:00,
2013-04-29 17:57:00,48.6,29.3,29.70,NE,50,3.6,5.1,47,0.00,,---,0.00,VWS V13.01,2013-04-29 22:57:00,
2013-04-29 18:02:00,48.4,29.6,29.70,NE,35,5.6,5.6,48,0.00,,---,0.00,VWS V13.01,2013-04-29 23:02:00,
2013-04-29 18:07:00,48.2,30.0,29.70,East,83,4.7,4.7,49,0.00,,---,0.00,VWS V13.01,2013-04-29 23:07:00,
2013-04-29 18:12:00,47.8,30.1,29.70,ENE,72,3.1,3.1,50,0.00,,---,0.00,VWS V13.01,2013-04-29 23:12:00,
2013-04-29 18:17:00,47.5,30.3,29.70,NNE,33,7.4,7.4,51,0.00,,---,0.00,VWS V13.01,2013-04-29 23:17:00,
2013-04-29 18:22:00,47.3,30.6,29.70,NNE,29,5.6,5.6,52,0.00,,---,0.00,VWS V13.01,2013-04-29 23:22:00,
2013-04-29 18:28:00,47.1,30.9,29.70,NE,40,0.0,0.0,53,0.00,,---,0.00,VWS V13.01,2013-04-29 23:28:00,
2013-04-29 18:33:00,47.1,30.4,29.70,NE,55,5.1,5.1,52,0.00,,---,0.00,VWS V13.01,2013-04-29 23:33:00,
2013-04-29 18:38:00,47.3,31.0,29.70,NNE,33,4.7,6.0,53,0.00,,---,0.00,VWS V13.01,2013-04-29 23:38:00,
2013-04-29 18:43:00,47.3,31.0,29.70,ENE,66,4.7,4.7,53,0.00,,---,0.00,VWS V13.01,2013-04-29 23:43:00,
2013-04-29 18:48:00,47.1,31.4,29.70,NE,54,5.1,5.1,54,0.00,,---,0.00,VWS V13.01,2013-04-29 23:48:00,
2013-04-29 18:53:00,46.9,31.2,29.70,East,91,0.0,0.0,54,0.00,,---,0.00,VWS V13.01,2013-04-29 23:53:00,
2013-04-29 18:58:00,46.9,31.6,29.70,East,83,4.0,4.5,55,0.00,,---,0.00,VWS V13.01,2013-04-29 23:58:00,
2013-04-29 19:03:00,46.9,31.2,29.70,ENE,71,0.0,0.0,54,0.00,,---,0.00,VWS V13.01,2013-04-30 00:03:00,
2013-04-29 19:08:00,46.9,31.6,29.70,NE,48,3.6,4.5,55,0.00,,---,0.00,VWS V13.01,2013-04-30 00:08:00,
2013-04-29 19:14:00,46.9,31.6,29.70,ENE,72,0.0,2.7,55,0.00,,---,0.00,VWS V13.01,2013-04-30 00:14:00,
2013-04-29 19:19:00,46.8,31.5,29.70,NE,41,4.0,4.0,55,0.00,,---,0.00,VWS V13.01,2013-04-30 00:19:00,
2013-04-29 19:24:00,46.8,31.5,29.70,NNE,32,4.0,4.5,55,0.00,,---,0.00,VWS V13.01,2013-04-30 00:24:00,
2013-04-29 19:29:00,46.8,31.5,29.70,NE,46,0.0,0.0,55,0.00,,---,0.00,VWS V13.01,2013-04-30 00:29:00,
2013-04-29 19:34:00,46.6,31.3,29.70,NNE,18,0.0,0.0,55,0.00,,---,0.00,VWS V13.01,2013-04-30 00:34:00,
2013-04-29 19:39:00,46.6,31.7,29.70,North,4,2.7,4.0,56,0.00,,---,0.00,VWS V13.01,2013-04-30 00:39:00,
2013-04-29 19:44:00,46.6,31.7,29.70,NNE,21,4.0,4.0,56,0.00,,---,0.00,VWS V13.01,2013-04-30 00:44:00,
2013-04-29 19:49:00,46.6,31.7,29.70,NNE,29,4.7,4.7,56,0.00,,---,0.00,VWS V13.01,2013-04-30 00:49:00,
2013-04-29 19:54:00,46.4,32.0,29.70,NNE,21,4.0,4.0,57,0.00,,---,0.00,VWS V13.01,2013-04-30 00:54:00,
2013-04-29 20:00:00,46.4,32.4,29.70,NNE,30,4.0,4.7,58,0.00,,---,0.00,VWS V13.01,2013-04-30 01:00:00,
2013-04-29 20:05:00,46.2,32.7,29.70,NE,37,3.6,4.7,59,0.00,,---,0.00,VWS V13.01,2013-04-30 01:05:00,
2013-04-29 20:10:00,46.0,32.5,29.70,NNE,26,3.1,3.1,59,0.00,,---,0.00,VWS V13.01,2013-04-30 01:10:00,
2013-04-29 20:15:00,45.9,32.8,29.70,North,3,4.0,4.0,60,0.00,,---,0.00,VWS V13.01,2013-04-30 01:15:00,
2013-04-29 20:20:00,45.5,32.4,29.70,North,4,2.7,4.0,60,0.00,,---,0.00,VWS V13.01,2013-04-30 01:20:00,
2013-04-29 20:25:00,45.3,32.7,29.70,North,4,3.6,4.0,61,0.00,,---,0.00,VWS V13.01,2013-04-30 01:25:00,
2013-04-29 20:30:00,45.1,32.9,29.70,North,4,3.6,4.0,62,0.00,,---,0.00,VWS V13.01,2013-04-30 01:30:00,
2013-04-29 20:35:00,44.8,33.0,29.70,North,3,0.0,0.0,63,0.00,,---,0.00,VWS V13.01,2013-04-30 01:35:00,
2013-04-29 20:40:00,44.8,33.4,29.70,NE,41,4.7,4.7,64,0.00,,---,0.00,VWS V13.01,2013-04-30 01:40:00,
2013-04-29 20:45:00,44.8,34.1,29.70,NNE,20,0.0,0.0,66,0.00,,---,0.00,VWS V13.01,2013-04-30 01:45:00,
2013-04-29 20:50:00,44.8,34.5,29.70,NNE,24,3.1,4.0,67,0.00,,---,0.00,VWS V13.01,2013-04-30 01:50:00,
2013-04-29 20:55:00,44.6,34.3,29.70,NNE,26,4.0,4.0,67,0.00,,---,0.00,VWS V13.01,2013-04-30 01:55:00,
2013-04-29 21:01:00,44.4,34.5,29.70,NNE,30,3.1,3.6,68,0.00,,---,0.00,VWS V13.01,2013-04-30 02:01:00,
2013-04-29 21:06:00,44.4,34.9,29.70,North,5,4.0,4.0,69,0.00,,---,0.00,VWS V13.01,2013-04-30 02:06:00,
2013-04-29 21:11:00,44.2,34.7,29.70,North,5,4.7,4.7,69,0.00,,---,0.00,VWS V13.01,2013-04-30 02:11:00,
2013-04-29 21:16:00,44.2,35.1,29.70,North,5,0.0,2.7,70,0.00,,---,0.00,VWS V13.01,2013-04-30 02:16:00,
2013-04-29 21:21:00,44.2,35.1,29.70,NNE,16,3.6,4.5,70,0.00,,---,0.00,VWS V13.01,2013-04-30 02:21:00,
2013-04-29 21:26:00,44.2,35.1,29.70,North,6,4.0,4.0,70,0.00,,---,0.00,VWS V13.01,2013-04-30 02:26:00,
2013-04-29 21:31:00,44.2,35.5,29.70,North,9,3.6,3.6,71,0.00,,---,0.00,VWS V13.01,2013-04-30 02:31:00,
2013-04-29 21:36:00,44.2,35.8,29.70,North,9,3.6,4.0,72,0.00,,---,0.00,VWS V13.01,2013-04-30 02:36:00,
2013-04-29 21:41:00,44.6,36.2,29.70,North,9,3.1,4.0,72,0.00,,---,0.00,VWS V13.01,2013-04-30 02:41:00,
2013-04-29 21:46:00,44.6,36.2,29.70,North,9,2.7,3.1,72,0.00,,---,0.00,VWS V13.01,2013-04-30 02:46:00,
2013-04-29 21:52:00,44.8,36.3,29.70,North,9,0.0,0.0,72,0.00,,---,0.00,VWS V13.01,2013-04-30 02:52:00,
2013-04-29 21:57:00,44.8,36.0,29.70,North,9,3.1,3.6,71,0.00,,---,0.00,VWS V13.01,2013-04-30 02:57:00,
2013-04-29 22:02:00,45.0,36.1,29.70,NNE,18,4.0,4.0,71,0.00,,---,0.00,VWS V13.01,2013-04-30 03:02:00,
2013-04-29 22:07:00,45.0,35.8,29.70,NE,36,2.7,3.1,70,0.00,,---,0.00,VWS V13.01,2013-04-30 03:07:00,
2013-04-29 22:12:00,45.0,35.0,29.70,NE,52,3.6,3.6,68,0.00,,---,0.00,VWS V13.01,2013-04-30 03:12:00,
2013-04-29 22:17:00,45.0,35.0,29.70,NNE,17,0.0,0.0,68,0.00,,---,0.00,VWS V13.01,2013-04-30 03:17:00,
2013-04-29 22:22:00,45.1,35.6,29.70,NE,48,0.0,3.6,69,0.00,,---,0.00,VWS V13.01,2013-04-30 03:22:00,
2013-04-29 22:27:00,45.1,35.2,29.67,NNE,29,0.0,3.6,68,0.00,,---,0.00,VWS V13.01,2013-04-30 03:27:00,
2013-04-29 22:32:00,45.0,35.0,29.67,East,94,0.0,0.0,68,0.00,,---,0.00,VWS V13.01,2013-04-30 03:32:00,
2013-04-29 22:37:00,44.8,34.5,29.67,NE,46,0.0,0.0,67,0.00,,---,0.00,VWS V13.01,2013-04-30 03:37:00,
2013-04-29 22:42:00,44.4,34.2,29.67,NE,46,0.0,0.0,67,0.00,,---,0.00,VWS V13.01,2013-04-30 03:42:00,
2013-04-29 22:48:00,44.1,34.2,29.67,NNE,25,3.6,4.0,68,0.00,,---,0.00,VWS V13.01,2013-04-30 03:48:00,
2013-04-29 22:53:00,44.1,34.6,29.67,East,82,0.0,0.0,69,0.00,,---,0.00,VWS V13.01,2013-04-30 03:53:00,
2013-04-29 22:58:00,44.1,34.6,29.67,East,82,0.0,0.0,69,0.00,,---,0.00,VWS V13.01,2013-04-30 03:58:00,
2013-04-29 23:01:00,43.9,34.4,29.67,East,82,0.0,0.0,69,0.00,,---,0.00,VWS V13.01,2013-04-30 04:01:00,
2013-04-29 23:06:00,43.5,34.0,29.67,East,82,0.0,0.0,69,0.00,,---,0.00,VWS V13.01,2013-04-30 04:06:00,
2013-04-29 23:11:00,43.3,33.9,29.67,East,82,0.0,0.0,69,0.00,,---,0.00,VWS V13.01,2013-04-30 04:11:00,
2013-04-29 23:16:00,43.2,33.7,29.67,East,82,0.0,0.0,69,0.00,,---,0.00,VWS V13.01,2013-04-30 04:16:00,
2013-04-29 23:21:00,42.8,33.3,29.67,East,82,0.0,0.0,69,0.00,,---,0.00,VWS V13.01,2013-04-30 04:21:00,
2013-04-29 23:26:00,42.6,33.5,29.67,East,82,0.0,0.0,70,0.00,,---,0.00,VWS V13.01,2013-04-30 04:26:00,
2013-04-29 23:32:00,42.4,33.4,29.67,East,82,0.0,0.0,70,0.00,,---,0.00,VWS V13.01,2013-04-30 04:32:00,
2013-04-29 23:37:00,42.4,33.7,29.67,East,82,0.0,0.0,71,0.00,,---,0.00,VWS V13.01,2013-04-30 04:37:00,
2013-04-29 23:42:00,42.4,33.7,29.67,East,82,0.0,0.0,71,0.00,,---,0.00,VWS V13.01,2013-04-30 04:42:00,
2013-04-29 23:47:00,42.3,33.5,29.67,East,82,0.0,0.0,71,0.00,,---,0.00,VWS V13.01,2013-04-30 04:47:00,
2013-04-29 23:52:00,42.1,33.4,29.67,East,82,0.0,0.0,71,0.00,,---,0.00,VWS V13.01,2013-04-30 04:52:00,
2013-04-29 23:57:00,41.9,33.2,29.67,East,82,0.0,0.0,71,0.00,,---,0.00,VWS V13.01,2013-04-30 04:57:00,